This is the latest recevied weather packets stored in our database for station/object K3HM. If no packets are shown the sender has not sent any weather packets the latest 10 day(s).
| Time | Temp. | Humidity | Pressure | Rain* | Wind** | Luminosity | Snow |
|---|---|---|---|---|---|---|---|
| 1777684345 | 4.44° C | 96% | 1012.6 hPa | 0 mm | - | 0 W/m² | - |
| 1777684043 | 4.44° C | 96% | 1012.6 hPa | 0 mm | - | 0 W/m² | - |
| 1777683738 | 5° C | 95% | 1012.6 hPa | 0 mm | - | 0 W/m² | - |
| 1777683436 | 5° C | 94% | 1012.6 hPa | 0 mm | - | 0 W/m² | - |
| 1777683134 | 5° C | 94% | 1012.6 hPa | 0 mm | - | 0 W/m² | - |
| 1777682830 | 5° C | 94% | 1012.5 hPa | 0 mm | - | 0 W/m² | - |
| 1777682526 | 5° C | 93% | 1012.2 hPa | 0 mm | - | 0 W/m² | - |
| 1777682224 | 5° C | 93% | 1012.3 hPa | 0 mm | - | 0 W/m² | - |
| 1777681921 | 5.56° C | 93% | 1012 hPa | 0 mm | - | 0 W/m² | - |
| 1777681616 | 5.56° C | 93% | 1012 hPa | 0 mm | - | 0 W/m² | - |
| 1777681315 | 5.56° C | 93% | 1012.2 hPa | 0 mm | - | 1 W/m² | - |
| 1777681012 | 5.56° C | 93% | 1012 hPa | 1.78 mm | - | 1 W/m² | - |
| 1777680709 | 5.56° C | 93% | 1012 hPa | 1.78 mm | - | 1 W/m² | - |
| 1777680407 | 5.56° C | 93% | 1012.3 hPa | 0 mm | - | 1 W/m² | - |
| 1777680105 | 6.11° C | 93% | 1012.6 hPa | 1.27 mm | - | 2 W/m² | - |
| 1777679800 | 6.11° C | 92% | 1012.4 hPa | 1.27 mm | - | 2 W/m² | - |
| 1777679497 | 6.11° C | 92% | 1012.4 hPa | 1.27 mm | - | 3 W/m² | - |
| 1777679192 | 6.11° C | 91% | 1012.4 hPa | 0 mm | - | 4 W/m² | - |
| 1777678890 | 6.11° C | 90% | 1012.3 hPa | 0 mm | - | 12 W/m² | - |
| 1777678588 | 6.67° C | 89% | 1012.3 hPa | 0 mm | - | 9 W/m² | - |
| 1777678285 | 6.67° C | 89% | 1012.3 hPa | 0 mm | - | 11 W/m² | - |
| 1777677981 | 6.67° C | 89% | 1012.3 hPa | 0 mm | - | 11 W/m² | - |
| 1777677679 | 7.22° C | 87% | 1012.3 hPa | 0 mm | - | 24 W/m² | - |
| 1777677376 | 7.22° C | 85% | 1012.3 hPa | 0 mm | - | 18 W/m² | - |
| 1777677074 | 7.22° C | 82% | 1012.2 hPa | 0 mm | - | 17 W/m² | - |
* Rain latest hour (hover to see other rain measurements)
** Current wind speed in m/s (hover to see current wind gust speed)